| time (UTC) | temp F | wind direction | speed knots | gust knots | rain 1hr in | rain 24hr in | rain mn in | humidity % | barometer mb |
| 20260906150007 | 76 | 293 | 0.0 | 3.5 | 0.00 | 0.00 | 0.00 | 78 | 1019.6 |
| 20260906145503 | 74 | 89 | 0.0 | 3.5 | 0.00 | 0.00 | 0.00 | 81 | 1019.5 |
| 20260906145006 | 73 | 326 | 0.0 | 3.5 | 0.00 | 0.00 | 0.00 | 82 | 1019.5 |
| 20260906144514 | 73 | 283 | 0.0 | 3.5 | 0.00 | 0.00 | 0.00 | 83 | 1019.5 |
| 20260906144007 | 72 | 309 | 0.9 | 3.5 | 0.00 | 0.00 | 0.00 | 83 | 1019.5 |
| 20260906143508 | 72 | 307 | 0.0 | 0.9 | 0.00 | 0.00 | 0.00 | 84 | 1019.4 |
| 20260906143018 | 72 | 307 | 0.0 | 2.6 | 0.00 | 0.00 | 0.00 | 84 | 1019.3 |
| 20260906142509 | 71 | 287 | 0.9 | 2.6 | 0.00 | 0.00 | 0.00 | 84 | 1019.3 |
| 20260906142014 | 71 | 303 | 0.0 | 1.7 | 0.00 | 0.00 | 0.00 | 85 | 1019.4 |
| 20260906141528 | 71 | 302 | 0.0 | 0.9 | 0.00 | 0.00 | 0.00 | 85 | 1019.4 |
| 20260906141011 | 71 | 341 | 0.0 | 2.6 | 0.00 | 0.00 | 0.00 | 85 | 1019.3 |
| 20260906140511 | 71 | 306 | 0.0 | 2.6 | 0.00 | 0.00 | 0.00 | 85 | 1019.3 |
| 20260906140004 | 71 | 249 | 0.9 | 2.6 | 0.00 | 0.00 | 0.00 | 85 | 1019.3 |
| 20260906135503 | 71 | 168 | 0.0 | 2.6 | 0.00 | 0.00 | 0.00 | 86 | 1019.3 |
| 20260906135005 | 70 | 293 | 0.9 | 2.6 | 0.00 | 0.00 | 0.00 | 86 | 1019.3 |
| 20260906134510 | 70 | 106 | 0.0 | 2.6 | 0.00 | 0.00 | 0.00 | 86 | 1019.3 |
| 20260906134005 | 70 | 255 | 0.9 | 2.6 | 0.00 | 0.00 | 0.00 | 86 | 1019.3 |
| 20260906133504 | 70 | 326 | 0.0 | 2.6 | 0.00 | 0.00 | 0.00 | 86 | 1019.2 |
| 20260906133012 | 70 | 176 | 0.0 | 2.6 | 0.00 | 0.00 | 0.00 | 86 | 1019.0 |
| 20260906132506 | 70 | 251 | 0.0 | 2.6 | 0.00 | 0.00 | 0.00 | 86 | 1019.1 |
| 20260906132007 | 70 | 259 | 0.0 | 2.6 | 0.00 | 0.00 | 0.00 | 87 | 1019.0 |
| 20260906131520 | 70 | 191 | 0.0 | 2.6 | 0.00 | 0.00 | 0.00 | 87 | 1019.0 |
| 20260906131010 | 69 | 184 | 0.9 | 2.6 | 0.00 | 0.00 | 0.00 | 87 | 1019.0 |
| 20260906130513 | 69 | 253 | 0.9 | 2.6 | 0.00 | 0.00 | 0.00 | 87 | 1019.1 |
| 20260906130027 | 69 | 273 | 0.0 | 1.7 | 0.00 | 0.00 | 0.00 | 88 | 1019.1 |
| 20260906125514 | 69 | 17 | 0.0 | 5.2 | 0.00 | 0.00 | 0.00 | 88 | 1019.3 |
| 20260906125012 | 69 | 251 | 0.9 | 5.2 | 0.00 | 0.00 | 0.00 | 88 | 1019.3 |
| 20260906124505 | 69 | 253 | 0.0 | 2.6 | 0.00 | 0.00 | 0.00 | 89 | 1019.3 |
| 20260906124004 | 69 | 254 | 0.9 | 2.6 | 0.00 | 0.00 | 0.00 | 89 | 1019.2 |
| 20260906123504 | 69 | 262 | 0.0 | 1.7 | 0.00 | 0.00 | 0.00 | 89 | 1019.2 |
| 20260906123010 | 68 | 247 | 0.0 | 0.9 | 0.00 | 0.00 | 0.00 | 89 | 1019.2 |
| 20260906122509 | 68 | 153 | 0.0 | 0.9 | 0.00 | 0.00 | 0.00 | 89 | 1019.3 |
| 20260906122008 | 68 | 153 | 0.0 | 0.9 | 0.00 | 0.00 | 0.00 | 90 | 1019.2 |
| 20260906121518 | 68 | 146 | 0.0 | 2.6 | 0.00 | 0.00 | 0.00 | 90 | 1019.2 |
| 20260906121009 | 68 | 248 | 0.0 | 2.6 | 0.00 | 0.00 | 0.00 | 90 | 1019.1 |
| 20260906120513 | 68 | 250 | 0.0 | 2.6 | 0.00 | 0.00 | 0.00 | 90 | 1019.0 |
| 20260906120025 | 68 | 238 | 0.0 | 2.6 | 0.00 | 0.00 | 0.00 | 90 | 1019.1 |
| 20260906115513 | 68 | 187 | 0.0 | 0.9 | 0.00 | 0.00 | 0.00 | 90 | 1019.1 |
| 20260906115012 | 68 | 205 | 0.0 | 1.7 | 0.00 | 0.00 | 0.00 | 90 | 1018.9 |
| 20260906114530 | 68 | 208 | 0.0 | 1.7 | 0.00 | 0.00 | 0.00 | 90 | 1018.7 |
| 20260906114014 | 68 | 216 | 0.0 | 1.7 | 0.00 | 0.00 | 0.00 | 90 | 1018.6 |
| 20260906113514 | 68 | 221 | 0.0 | 1.7 | 0.00 | 0.00 | 0.00 | 90 | 1018.3 |
| 20260906113030 | 68 | 213 | 0.0 | 2.6 | 0.00 | 0.00 | 0.00 | 90 | 1018.3 |
| 20260906112504 | 68 | 220 | 0.0 | 2.6 | 0.00 | 0.00 | 0.00 | 90 | 1018.3 |
| 20260906112004 | 68 | 228 | 0.0 | 1.7 | 0.00 | 0.00 | 0.00 | 90 | 1018.2 |
| 20260906111516 | 68 | 240 | 0.0 | 1.7 | 0.00 | 0.00 | 0.00 | 90 | 1018.1 |
| 20260906111007 | 68 | 208 | 0.0 | 1.7 | 0.00 | 0.00 | 0.00 | 90 | 1018.1 |
| 20260906110508 | 68 | 181 | 0.0 | 2.6 | 0.00 | 0.00 | 0.00 | 90 | 1018.0 |
| 20260906110024 | 68 | 215 | 0.0 | 2.6 | 0.00 | 0.00 | 0.00 | 90 | 1017.9 |
| 20260906105511 | 68 | 217 | 0.0 | 0.9 | 0.00 | 0.00 | 0.00 | 90 | 1017.9 |
| 20260906105009 | 68 | 202 | 0.0 | 0.9 | 0.00 | 0.00 | 0.00 | 90 | 1017.8 |
| 20260906104527 | 68 | 216 | 0.0 | 1.7 | 0.00 | 0.00 | 0.00 | 90 | 1017.6 |
| 20260906104012 | 68 | 217 | 0.0 | 1.7 | 0.00 | 0.00 | 0.00 | 90 | 1017.6 |
| 20260906103502 | 68 | 184 | 0.0 | 1.7 | 0.00 | 0.00 | 0.00 | 90 | 1017.4 |
| 20260906103013 | 68 | 188 | 0.0 | 2.6 | 0.00 | 0.00 | 0.00 | 90 | 1017.4 |
| 20260906102507 | 68 | 178 | 0.9 | 2.6 | 0.00 | 0.00 | 0.00 | 90 | 1017.3 |
| 20260906102004 | 68 | 222 | 0.0 | 1.7 | 0.00 | 0.00 | 0.00 | 90 | 1017.3 |
| 20260906101511 | 68 | 224 | 0.0 | 2.6 | 0.00 | 0.00 | 0.00 | 90 | 1017.3 |
| 20260906101009 | 68 | 211 | 0.0 | 2.6 | 0.00 | 0.00 | 0.00 | 90 | 1017.3 |
| 20260906100505 | 68 | 213 | 0.0 | 2.6 | 0.00 | 0.00 | 0.00 | 90 | 1017.2 |
| 20260906100024 | 69 | 146 | 0.0 | 1.7 | 0.00 | 0.00 | 0.00 | 90 | 1017.1 |
| 20260906095503 | 69 | 226 | 0.0 | 1.7 | 0.00 | 0.00 | 0.00 | 90 | 1017.1 |
| 20260906095004 | 69 | 251 | 0.0 | 1.7 | 0.00 | 0.00 | 0.00 | 90 | 1017.1 |
| 20260906094512 | 69 | 255 | 0.0 | 1.7 | 0.00 | 0.00 | 0.00 | 89 | 1017.2 |
| 20260906094004 | 69 | 181 | 0.0 | 1.7 | 0.00 | 0.00 | 0.00 | 89 | 1017.1 |
| 20260906093505 | 69 | 235 | 0.0 | 0.9 | 0.00 | 0.00 | 0.00 | 89 | 1017.2 |
| 20260906093012 | 69 | 231 | 0.0 | 0.0 | 0.00 | 0.00 | 0.00 | 89 | 1017.2 |
| 20260906092504 | 69 | 231 | 0.0 | 0.9 | 0.00 | 0.00 | 0.00 | 89 | 1017.2 |
| 20260906092005 | 69 | 247 | 0.0 | 0.9 | 0.00 | 0.00 | 0.00 | 89 | 1017.2 |
| 20260906091509 | 69 | 248 | 0.0 | 0.9 | 0.00 | 0.00 | 0.00 | 89 | 1017.2 |
| 20260906091004 | 69 | 248 | 0.0 | 0.9 | 0.00 | 0.00 | 0.00 | 88 | 1017.1 |
| 20260906090505 | 70 | 248 | 0.0 | 1.7 | 0.00 | 0.00 | 0.00 | 88 | 1017.0 |
| 20260906090011 | 70 | 226 | 0.0 | 1.7 | 0.00 | 0.00 | 0.00 | 88 | 1017.0 |
| 20260906085510 | 70 | 226 | 0.0 | 0.0 | 0.00 | 0.00 | 0.00 | 88 | 1017.1 |
| 20260906085006 | 70 | 196 | 0.0 | 0.0 | 0.00 | 0.00 | 0.00 | 87 | 1017.3 |
| 20260906084512 | 70 | 176 | 0.0 | 0.9 | 0.00 | 0.00 | 0.00 | 87 | 1017.3 |
| 20260906084005 | 70 | 176 | 0.0 | 1.7 | 0.00 | 0.00 | 0.00 | 87 | 1017.3 |
| 20260906083506 | 70 | 217 | 0.0 | 1.7 | 0.00 | 0.00 | 0.00 | 87 | 1017.2 |
| 20260906083014 | 70 | 231 | 0.0 | 1.7 | 0.00 | 0.00 | 0.00 | 87 | 1017.2 |
| 20260906082507 | 70 | 240 | 0.0 | 1.7 | 0.00 | 0.00 | 0.00 | 87 | 1017.3 |
| 20260906082007 | 70 | 209 | 0.0 | 0.9 | 0.00 | 0.00 | 0.00 | 87 | 1017.3 |
| 20260906081514 | 70 | 222 | 0.0 | 1.7 | 0.00 | 0.00 | 0.00 | 86 | 1017.3 |
| 20260906081007 | 71 | 222 | 0.0 | 1.7 | 0.00 | 0.00 | 0.00 | 86 | 1017.2 |
| 20260906080504 | 71 | 233 | 0.0 | 0.9 | 0.00 | 0.00 | 0.00 | 86 | 1017.2 |
| 20260906080012 | 71 | 207 | 0.0 | 2.6 | 0.00 | 0.00 | 0.00 | 85 | 1017.1 |
| 20260906075505 | 71 | 229 | 0.9 | 2.6 | 0.00 | 0.00 | 0.00 | 85 | 1017.1 |
| 20260906075006 | 71 | 218 | 0.9 | 2.6 | 0.00 | 0.00 | 0.00 | 85 | 1017.1 |
| 20260906074516 | 71 | 184 | 0.0 | 2.6 | 0.00 | 0.00 | 0.00 | 85 | 1017.1 |
| 20260906074008 | 71 | 261 | 0.0 | 1.7 | 0.00 | 0.00 | 0.00 | 85 | 1017.1 |
| 20260906073508 | 71 | 188 | 0.0 | 3.5 | 0.00 | 0.00 | 0.00 | 85 | 1017.2 |
| 20260906073016 | 72 | 206 | 0.9 | 3.5 | 0.00 | 0.00 | 0.00 | 85 | 1017.2 |
| 20260906072507 | 72 | 276 | 1.7 | 3.5 | 0.00 | 0.00 | 0.00 | 85 | 1017.5 |
| 20260906072008 | 72 | 205 | 0.0 | 2.6 | 0.00 | 0.00 | 0.00 | 85 | 1017.4 |
| 20260906071519 | 72 | 227 | 0.0 | 2.6 | 0.00 | 0.00 | 0.00 | 85 | 1017.4 |
| 20260906071007 | 72 | 197 | 0.0 | 2.6 | 0.00 | 0.00 | 0.00 | 85 | 1017.5 |
| 20260906070507 | 72 | 242 | 0.0 | 2.6 | 0.00 | 0.00 | 0.00 | 85 | 1017.5 |
| 20260906070017 | 72 | 210 | 0.0 | 3.5 | 0.00 | 0.00 | 0.00 | 84 | 1017.6 |
| 20260906065508 | 72 | 200 | 1.7 | 3.5 | 0.00 | 0.00 | 0.00 | 84 | 1017.7 |
| 20260906065005 | 72 | 210 | 0.9 | 2.6 | 0.00 | 0.00 | 0.00 | 84 | 1017.7 |
| 20260906064512 | 72 | 193 | 0.9 | 4.3 | 0.00 | 0.00 | 0.00 | 84 | 1017.5 |
| 20260906064004 | 72 | 214 | 0.9 | 4.3 | 0.00 | 0.00 | 0.00 | 84 | 1017.5 |
| 20260906063510 | 72 | 181 | 1.7 | 7.0 | 0.00 | 0.00 | 0.00 | 84 | 1017.5 |
| 20260906063018 | 72 | 248 | 0.9 | 7.0 | 0.00 | 0.00 | 0.00 | 84 | 1017.5 |
| 20260906062509 | 73 | 241 | 0.9 | 3.5 | 0.00 | 0.00 | 0.00 | 83 | 1017.4 |
| 20260906062009 | 73 | 227 | 0.0 | 3.5 | 0.00 | 0.00 | 0.00 | 83 | 1017.5 |
| 20260906061524 | 73 | 276 | 0.9 | 3.5 | 0.00 | 0.00 | 0.00 | 83 | 1017.4 |
| 20260906061007 | 73 | 158 | 0.9 | 2.6 | 0.00 | 0.00 | 0.00 | 83 | 1017.4 |
| 20260906060507 | 73 | 185 | 0.0 | 3.5 | 0.00 | 0.00 | 0.00 | 83 | 1017.4 |
| 20260906060021 | 73 | 199 | 0.9 | 3.5 | 0.00 | 0.00 | 0.00 | 83 | 1017.4 |
| 20260906055513 | 73 | 190 | 0.0 | 7.8 | 0.00 | 0.00 | 0.00 | 83 | 1017.4 |
| 20260906055009 | 74 | 189 | 0.9 | 7.8 | 0.00 | 0.00 | 0.00 | 82 | 1017.4 |
| 20260906054533 | 74 | 136 | 0.9 | 4.3 | 0.00 | 0.00 | 0.00 | 82 | 1017.4 |
| 20260906054009 | 74 | 221 | 1.7 | 3.5 | 0.00 | 0.00 | 0.00 | 82 | 1017.4 |
| 20260906053511 | 74 | 220 | 1.7 | 3.5 | 0.00 | 0.00 | 0.00 | 82 | 1017.4 |
| 20260906053014 | 74 | 200 | 0.0 | 3.5 | 0.00 | 0.00 | 0.00 | 81 | 1017.4 |
| 20260906052506 | 74 | 201 | 0.0 | 4.3 | 0.00 | 0.00 | 0.00 | 81 | 1017.4 |
| 20260906052012 | 74 | 226 | 0.9 | 4.3 | 0.00 | 0.00 | 0.00 | 81 | 1017.3 |
| 20260906051518 | 74 | 205 | 0.0 | 2.6 | 0.00 | 0.00 | 0.00 | 81 | 1017.3 |
| 20260906051011 | 74 | 206 | 0.9 | 3.5 | 0.00 | 0.00 | 0.00 | 81 | 1017.1 |
| 20260906050514 | 75 | 169 | 0.9 | 3.5 | 0.00 | 0.00 | 0.00 | 80 | 1017.2 |
| 20260906050027 | 75 | 207 | 0.9 | 3.5 | 0.00 | 0.00 | 0.00 | 80 | 1017.2 |
| 20260906045509 | 75 | 191 | 0.9 | 3.5 | 0.00 | 0.00 | 0.00 | 80 | 1017.4 |
| 20260906045008 | 75 | 203 | 0.9 | 3.5 | 0.00 | 0.00 | 0.00 | 81 | 1017.3 |
| 20260906044523 | 75 | 191 | 0.0 | 4.3 | 0.00 | 0.00 | 0.00 | 81 | 1017.3 |
| 20260906044011 | 75 | 160 | 2.6 | 4.3 | 0.00 | 0.00 | 0.00 | 81 | 1017.1 |
| 20260906043509 | 75 | 203 | 1.7 | 3.5 | 0.00 | 0.00 | 0.00 | 81 | 1017.0 |
| 20260906043026 | 75 | 289 | 0.9 | 4.3 | 0.00 | 0.00 | 0.00 | 81 | 1016.9 |
| 20260906042509 | 75 | 245 | 2.6 | 4.3 | 0.00 | 0.00 | 0.00 | 81 | 1016.8 |
| 20260906042014 | 75 | 263 | 0.0 | 3.5 | 0.00 | 0.00 | 0.00 | 82 | 1016.7 |
| 20260906041516 | 75 | 243 | 1.7 | 3.5 | 0.00 | 0.00 | 0.00 | 81 | 1016.6 |
| 20260906041009 | 75 | 250 | 0.0 | 2.6 | 0.00 | 0.00 | 0.00 | 81 | 1016.5 |
| 20260906040509 | 75 | 181 | 0.0 | 2.6 | 0.00 | 0.00 | 0.00 | 81 | 1016.4 |
| 20260906040023 | 75 | 216 | 0.0 | 2.6 | 0.00 | 0.00 | 0.00 | 81 | 1016.3 |
| 20260906035508 | 75 | 225 | 0.0 | 2.6 | 0.00 | 0.00 | 0.00 | 81 | 1016.3 |
| 20260906035011 | 75 | 184 | 0.0 | 0.9 | 0.00 | 0.00 | 0.00 | 81 | 1016.3 |
| 20260906034528 | 75 | 178 | 0.0 | 1.7 | 0.00 | 0.00 | 0.00 | 81 | 1016.1 |
| 20260906034011 | 75 | 207 | 0.0 | 1.7 | 0.00 | 0.00 | 0.00 | 81 | 1016.1 |
| 20260906033512 | 75 | 216 | 0.0 | 0.9 | 0.00 | 0.00 | 0.00 | 81 | 1016.1 |
| 20260906033028 | 76 | 253 | 0.0 | 1.7 | 0.00 | 0.00 | 0.00 | 81 | 1016.2 |
| 20260906032513 | 76 | 186 | 0.0 | 1.7 | 0.00 | 0.00 | 0.00 | 81 | 1016.2 |
| 20260906032015 | 76 | 179 | 0.0 | 0.0 | 0.00 | 0.00 | 0.00 | 81 | 1016.1 |
| 20260906031524 | 76 | 179 | 0.0 | 1.7 | 0.00 | 0.00 | 0.00 | 81 | 1016.1 |
| 20260906031015 | 76 | 179 | 0.0 | 2.6 | 0.00 | 0.00 | 0.00 | 80 | 1016.0 |
| 20260906030512 | 76 | 196 | 0.0 | 2.6 | 0.00 | 0.00 | 0.00 | 80 | 1015.9 |
| 20260906030019 | 76 | 142 | 0.0 | 1.7 | 0.00 | 0.00 | 0.00 | 80 | 1015.8 |
| 20260906025508 | 76 | 195 | 0.0 | 1.7 | 0.00 | 0.00 | 0.00 | 80 | 1015.8 |
| 20260906025010 | 76 | 245 | 0.0 | 2.6 | 0.00 | 0.00 | 0.00 | 80 | 1015.8 |
| 20260906024520 | 76 | 236 | 0.9 | 2.6 | 0.00 | 0.00 | 0.00 | 81 | 1015.7 |
| 20260906024012 | 76 | 240 | 0.0 | 2.6 | 0.00 | 0.00 | 0.00 | 80 | 1015.7 |
| 20260906023514 | 76 | 192 | 0.0 | 2.6 | 0.00 | 0.00 | 0.00 | 81 | 1015.7 |
| 20260906023027 | 76 | 213 | 0.0 | 1.7 | 0.00 | 0.00 | 0.00 | 81 | 1015.7 |
| 20260906022512 | 76 | 245 | 0.0 | 1.7 | 0.00 | 0.00 | 0.00 | 80 | 1015.6 |
| 20260906022012 | 76 | 207 | 0.0 | 0.9 | 0.00 | 0.00 | 0.00 | 80 | 1015.6 |
| 20260906021537 | 76 | 207 | 0.0 | 1.7 | 0.00 | 0.00 | 0.00 | 80 | 1015.6 |
| 20260906021014 | 76 | 232 | 0.0 | 2.6 | 0.00 | 0.00 | 0.00 | 80 | 1015.5 |
| 20260906020517 | 76 | 210 | 0.9 | 2.6 | 0.00 | 0.00 | 0.00 | 80 | 1015.4 |
| 20260906020030 | 76 | 186 | 0.0 | 1.7 | 0.00 | 0.00 | 0.00 | 80 | 1015.3 |
| 20260906015511 | 76 | 186 | 0.0 | 1.7 | 0.00 | 0.00 | 0.00 | 80 | 1015.2 |
| 20260906015014 | 76 | 233 | 0.0 | 1.7 | 0.00 | 0.00 | 0.00 | 80 | 1015.3 |
| 20260906014529 | 76 | 212 | 0.0 | 1.7 | 0.00 | 0.00 | 0.00 | 80 | 1015.4 |
| 20260906014009 | 76 | 233 | 0.0 | 2.6 | 0.00 | 0.00 | 0.00 | 80 | 1015.2 |
| 20260906013512 | 76 | 218 | 0.0 | 2.6 | 0.00 | 0.00 | 0.00 | 79 | 1015.0 |
| 20260906013038 | 76 | 203 | 0.0 | 3.5 | 0.00 | 0.00 | 0.00 | 79 | 1014.9 |
| 20260906012503 | 77 | 208 | 0.9 | 3.5 | 0.00 | 0.00 | 0.00 | 79 | 1015.0 |
| 20260906012003 | 77 | 213 | 0.0 | 2.6 | 0.00 | 0.00 | 0.00 | 79 | 1015.0 |
| 20260906011505 | 77 | 200 | 0.0 | 2.6 | 0.00 | 0.00 | 0.00 | 79 | 1015.0 |
| 20260906011003 | 77 | 257 | 0.0 | 2.6 | 0.00 | 0.00 | 0.00 | 78 | 1015.1 |
| 20260906010505 | 77 | 214 | 0.9 | 3.5 | 0.00 | 0.00 | 0.00 | 78 | 1015.2 |
| 20260906010008 | 77 | 236 | 0.9 | 3.5 | 0.00 | 0.00 | 0.00 | 78 | 1015.2 |
| 20260906005504 | 78 | 248 | 1.7 | 3.5 | 0.00 | 0.00 | 0.00 | 78 | 1015.2 |
| 20260906005005 | 78 | 243 | 0.9 | 3.5 | 0.00 | 0.00 | 0.00 | 77 | 1015.2 |
| 20260906004516 | 78 | 183 | 0.9 | 4.3 | 0.00 | 0.00 | 0.00 | 78 | 1015.2 |
| 20260906004002 | 78 | 174 | 0.0 | 4.3 | 0.00 | 0.00 | 0.00 | 77 | 1015.2 |
| 20260906003502 | 79 | 191 | 0.9 | 5.2 | 0.00 | 0.00 | 0.00 | 77 | 1015.2 |
| 20260906003008 | 79 | 262 | 1.7 | 5.2 | 0.00 | 0.00 | 0.00 | 77 | 1015.1 |
| 20260906002502 | 79 | 221 | 1.7 | 3.5 | 0.00 | 0.00 | 0.00 | 76 | 1015.1 |
| 20260906002003 | 80 | 188 | 0.9 | 5.2 | 0.00 | 0.00 | 0.00 | 76 | 1015.1 |
| 20260906001506 | 80 | 227 | 1.7 | 5.2 | 0.00 | 0.00 | 0.00 | 75 | 1015.1 |
| 20260906001003 | 80 | 204 | 0.9 | 3.5 | 0.00 | 0.00 | 0.00 | 75 | 1015.0 |
| 20260906000504 | 81 | 245 | 1.7 | 3.5 | 0.00 | 0.00 | 0.00 | 75 | 1015.0 |
| 20260906000006 | 81 | 170 | 1.7 | 6.1 | 0.00 | 0.00 | 0.00 | 76 | 1014.9 |
| 20260905235503 | 81 | 181 | 1.7 | 6.1 | 0.00 | 0.00 | 0.00 | 75 | 1014.7 |
| 20260905235004 | 82 | 218 | 1.7 | 5.2 | 0.00 | 0.00 | 0.00 | 75 | 1014.7 |
| 20260905234512 | 82 | 169 | 1.7 | 5.2 | 0.00 | 0.00 | 0.00 | 74 | 1014.6 |
| 20260905234007 | 82 | 196 | 1.7 | 5.2 | 0.00 | 0.00 | 0.00 | 75 | 1014.7 |
| 20260905233507 | 82 | 172 | 1.7 | 5.2 | 0.00 | 0.00 | 0.00 | 74 | 1014.7 |
| 20260905233019 | 83 | 229 | 2.6 | 5.2 | 0.00 | 0.00 | 0.00 | 74 | 1014.6 |
| 20260905232510 | 83 | 181 | 2.6 | 6.1 | 0.00 | 0.00 | 0.00 | 73 | 1014.7 |
| 20260905232003 | 83 | 210 | 0.9 | 6.1 | 0.00 | 0.00 | 0.00 | 74 | 1014.7 |
| 20260905231504 | 84 | 178 | 1.7 | 5.2 | 0.00 | 0.00 | 0.00 | 74 | 1014.7 |
| 20260905231003 | 84 | 174 | 2.6 | 5.2 | 0.00 | 0.00 | 0.00 | 74 | 1014.7 |
| 20260905230504 | 85 | 268 | 2.6 | 4.3 | 0.00 | 0.00 | 0.00 | 73 | 1014.6 |
| 20260905230007 | 85 | 100 | 0.0 | 4.3 | 0.00 | 0.00 | 0.00 | 74 | 1014.6 |
| 20260905225504 | 85 | 214 | 1.7 | 4.3 | 0.00 | 0.00 | 0.00 | 73 | 1014.7 |
| 20260905225003 | 85 | 145 | 0.9 | 3.5 | 0.00 | 0.00 | 0.00 | 73 | 1014.7 |
| 20260905224514 | 86 | 152 | 1.7 | 4.3 | 0.00 | 0.00 | 0.00 | 72 | 1014.7 |
| 20260905224003 | 86 | 255 | 1.7 | 4.3 | 0.00 | 0.00 | 0.00 | 72 | 1014.6 |
| 20260905223507 | 86 | 212 | 0.0 | 4.3 | 0.00 | 0.00 | 0.00 | 71 | 1014.6 |
| 20260905223014 | 86 | 200 | 1.7 | 4.3 | 0.00 | 0.00 | 0.00 | 71 | 1014.6 |
| 20260905222509 | 87 | 181 | 0.9 | 3.5 | 0.00 | 0.00 | 0.00 | 71 | 1014.5 |
| 20260905222007 | 87 | 148 | 1.7 | 5.2 | 0.00 | 0.00 | 0.00 | 70 | 1014.4 |
| 20260905221519 | 87 | 271 | 2.6 | 5.2 | 0.00 | 0.00 | 0.00 | 70 | 1014.3 |
| 20260905221009 | 87 | 224 | 1.7 | 4.3 | 0.00 | 0.00 | 0.00 | 70 | 1014.3 |
| 20260905220502 | 87 | 252 | 2.6 | 4.3 | 0.00 | 0.00 | 0.00 | 70 | 1014.4 |
| 20260905220003 | 87 | 215 | 0.9 | 3.5 | 0.00 | 0.00 | 0.00 | 71 | 1014.4 |
| 20260905215504 | 87 | 229 | 0.9 | 5.2 | 0.00 | 0.00 | 0.00 | 71 | 1014.5 |
| 20260905215003 | 87 | 212 | 1.7 | 5.2 | 0.00 | 0.00 | 0.00 | 70 | 1014.4 |
| 20260905214506 | 87 | 159 | 0.9 | 3.5 | 0.00 | 0.00 | 0.00 | 70 | 1014.4 |
| 20260905214004 | 88 | 78 | 0.9 | 5.2 | 0.00 | 0.00 | 0.00 | 70 | 1014.2 |
| 20260905213503 | 88 | 183 | 1.7 | 5.2 | 0.00 | 0.00 | 0.00 | 70 | 1014.2 |
| 20260905213009 | 88 | 196 | 0.9 | 4.3 | 0.00 | 0.00 | 0.00 | 70 | 1014.1 |
| 20260905212506 | 88 | 209 | 0.9 | 4.3 | 0.00 | 0.00 | 0.00 | 70 | 1014.1 |
| 20260905212004 | 89 | 231 | 1.7 | 6.1 | 0.00 | 0.00 | 0.00 | 68 | 1014.0 |
| 20260905211515 | 89 | 243 | 2.6 | 6.1 | 0.00 | 0.00 | 0.00 | 68 | 1014.0 |
| 20260905211007 | 89 | 167 | 1.7 | 5.2 | 0.00 | 0.00 | 0.00 | 69 | 1014.0 |
| 20260905210509 | 90 | 190 | 1.7 | 5.2 | 0.00 | 0.00 | 0.00 | 67 | 1014.1 |
| 20260905210021 | 91 | 155 | 1.7 | 3.5 | 0.00 | 0.00 | 0.00 | 67 | 1014.1 |
| 20260905205511 | 91 | 208 | 0.9 | 4.3 | 0.00 | 0.00 | 0.00 | 67 | 1014.0 |
| 20260905205012 | 91 | 252 | 0.9 | 5.2 | 0.00 | 0.00 | 0.00 | 67 | 1014.1 |
| 20260905204502 | 91 | 273 | 2.6 | 5.2 | 0.00 | 0.00 | 0.00 | 65 | 1014.1 |
| 20260905204002 | 92 | 250 | 1.7 | 5.2 | 0.00 | 0.00 | 0.00 | 64 | 1014.2 |
| 20260905203504 | 92 | 194 | 1.7 | 4.3 | 0.00 | 0.00 | 0.00 | 64 | 1014.2 |
| 20260905203008 | 92 | 155 | 0.9 | 4.3 | 0.00 | 0.00 | 0.00 | 64 | 1014.2 |
| 20260905202503 | 92 | 225 | 1.7 | 3.5 | 0.00 | 0.00 | 0.00 | 63 | 1014.4 |
| 20260905202005 | 92 | 44 | 0.0 | 2.6 | 0.00 | 0.00 | 0.00 | 63 | 1014.4 |
| 20260905201517 | 92 | 318 | 0.0 | 2.6 | 0.00 | 0.00 | 0.00 | 64 | 1014.4 |
| 20260905201007 | 92 | 134 | 0.9 | 2.6 | 0.00 | 0.00 | 0.00 | 63 | 1014.3 |
| 20260905200504 | 92 | 136 | 1.7 | 2.6 | 0.00 | 0.00 | 0.00 | 62 | 1014.2 |
| 20260905200023 | 92 | 176 | 0.9 | 2.6 | 0.00 | 0.00 | 0.00 | 61 | 1014.2 |
| 20260905195507 | 92 | 176 | 1.7 | 2.6 | 0.00 | 0.00 | 0.00 | 63 | 1014.3 |
| 20260905195008 | 92 | 229 | 0.9 | 2.6 | 0.00 | 0.00 | 0.00 | 63 | 1014.3 |
| 20260905194520 | 92 | 217 | 0.9 | 2.6 | 0.00 | 0.00 | 0.00 | 63 | 1014.3 |
| 20260905194012 | 91 | 156 | 0.9 | 2.6 | 0.00 | 0.00 | 0.00 | 64 | 1014.4 |
| 20260905193517 | 92 | 167 | 0.0 | 2.6 | 0.00 | 0.00 | 0.00 | 63 | 1014.4 |
| 20260905193005 | 93 | 158 | 0.9 | 2.6 | 0.00 | 0.00 | 0.00 | 61 | 1014.4 |
| 20260905192503 | 92 | 86 | 0.0 | 3.5 | 0.00 | 0.00 | 0.00 | 64 | 1014.4 |
| 20260905192003 | 92 | 162 | 0.9 | 3.5 | 0.00 | 0.00 | 0.00 | 62 | 1014.5 |
| 20260905191508 | 92 | 203 | 0.9 | 3.5 | 0.00 | 0.00 | 0.00 | 65 | 1014.4 |
| 20260905191003 | 91 | 276 | 1.7 | 3.5 | 0.00 | 0.00 | 0.00 | 64 | 1014.5 |
| 20260905190504 | 91 | 248 | 0.0 | 1.7 | 0.00 | 0.00 | 0.00 | 66 | 1014.6 |
| 20260905190016 | 91 | 205 | 0.0 | 2.6 | 0.00 | 0.00 | 0.00 | 64 | 1014.6 |
| 20260905185505 | 92 | 100 | 0.9 | 3.5 | 0.00 | 0.00 | 0.00 | 63 | 1014.6 |
| 20260905185009 | 92 | 165 | 0.0 | 3.5 | 0.00 | 0.00 | 0.00 | 63 | 1014.6 |
| 20260905184522 | 92 | 178 | 0.0 | 2.6 | 0.00 | 0.00 | 0.00 | 65 | 1014.6 |
| 20260905184011 | 91 | 265 | 0.9 | 2.6 | 0.00 | 0.00 | 0.00 | 63 | 1014.6 |
| 20260905183510 | 92 | 207 | 0.9 | 2.6 | 0.00 | 0.00 | 0.00 | 62 | 1014.6 |
| 20260905183024 | 92 | 213 | 0.9 | 2.6 | 0.00 | 0.00 | 0.00 | 63 | 1014.5 |
| 20260905182511 | 92 | 240 | 0.9 | 2.6 | 0.00 | 0.00 | 0.00 | 64 | 1014.6 |
| 20260905182013 | 91 | 269 | 1.7 | 2.6 | 0.00 | 0.00 | 0.00 | 64 | 1014.6 |
| 20260905181529 | 91 | 227 | 0.0 | 2.6 | 0.00 | 0.00 | 0.00 | 64 | 1014.8 |
| 20260905181004 | 91 | 172 | 0.0 | 2.6 | 0.00 | 0.00 | 0.00 | 64 | 1014.7 |
| 20260905180503 | 91 | 185 | 0.9 | 2.6 | 0.00 | 0.00 | 0.00 | 63 | 1014.7 |
| 20260905180009 | 92 | 169 | 0.9 | 2.6 | 0.00 | 0.00 | 0.00 | 63 | 1014.7 |
| 20260905175503 | 92 | 174 | 0.9 | 2.6 | 0.00 | 0.00 | 0.00 | 63 | 1014.9 |
| 20260905175008 | 92 | 146 | 0.9 | 2.6 | 0.00 | 0.00 | 0.00 | 62 | 1014.9 |
| 20260905174517 | 92 | 278 | 0.9 | 2.6 | 0.00 | 0.00 | 0.00 | 62 | 1014.8 |
| 20260905174009 | 91 | 157 | 0.0 | 2.6 | 0.00 | 0.00 | 0.00 | 62 | 1014.9 |
| 20260905173509 | 91 | 162 | 0.9 | 2.6 | 0.00 | 0.00 | 0.00 | 62 | 1015.0 |
| 20260905173018 | 92 | 210 | 1.7 | 2.6 | 0.00 | 0.00 | 0.00 | 62 | 1014.9 |
| 20260905172511 | 92 | 146 | 1.7 | 3.5 | 0.00 | 0.00 | 0.00 | 62 | 1014.9 |
| 20260905172012 | 92 | 262 | 1.7 | 3.5 | 0.00 | 0.00 | 0.00 | 61 | 1014.9 |
| 20260905171530 | 92 | 245 | 0.9 | 3.5 | 0.00 | 0.00 | 0.00 | 61 | 1015.0 |
| 20260905171011 | 93 | 264 | 0.9 | 1.7 | 0.00 | 0.00 | 0.00 | 61 | 1015.1 |
| 20260905170512 | 92 | 178 | 0.0 | 2.6 | 0.00 | 0.00 | 0.00 | 62 | 1015.0 |
| 20260905170029 | 92 | 156 | 0.0 | 2.6 | 0.00 | 0.00 | 0.00 | 63 | 1015.1 |
| 20260905165514 | 91 | 259 | 0.9 | 4.3 | 0.00 | 0.00 | 0.00 | 62 | 1015.2 |
| 20260905165003 | 91 | 141 | 1.7 | 4.3 | 0.00 | 0.00 | 0.00 | 63 | 1015.2 |
| 20260905164509 | 91 | 231 | 0.9 | 4.3 | 0.00 | 0.00 | 0.00 | 64 | 1015.2 |
| 20260905164003 | 91 | 226 | 1.7 | 4.3 | 0.00 | 0.00 | 0.00 | 64 | 1015.3 |
| 20260905163503 | 91 | 249 | 0.9 | 3.5 | 0.00 | 0.00 | 0.00 | 65 | 1015.2 |
| 20260905163014 | 91 | 297 | 0.9 | 3.5 | 0.00 | 0.00 | 0.00 | 64 | 1015.2 |
| 20260905162512 | 90 | 288 | 0.0 | 1.7 | 0.00 | 0.00 | 0.00 | 67 | 1015.2 |
| 20260905162007 | 89 | 260 | 0.9 | 4.3 | 0.00 | 0.00 | 0.00 | 66 | 1015.2 |
| 20260905161521 | 89 | 265 | 0.9 | 4.3 | 0.00 | 0.00 | 0.00 | 66 | 1015.2 |
| 20260905161008 | 90 | 276 | 0.9 | 3.5 | 0.00 | 0.00 | 0.00 | 64 | 1015.3 |
| 20260905160512 | 90 | 254 | 1.7 | 4.3 | 0.00 | 0.00 | 0.00 | 66 | 1015.2 |
| 20260905160032 | 89 | 205 | 1.7 | 4.3 | 0.00 | 0.00 | 0.00 | 65 | 1015.3 |
| 20260905155514 | 89 | 272 | 1.7 | 4.3 | 0.00 | 0.00 | 0.00 | 66 | 1015.3 |
| 20260905155015 | 90 | 143 | 1.7 | 3.5 | 0.00 | 0.00 | 0.00 | 65 | 1015.3 |
| 20260905154532 | 90 | 243 | 1.7 | 2.6 | 0.00 | 0.00 | 0.00 | 66 | 1015.4 |
| 20260905154016 | 90 | 273 | 0.9 | 2.6 | 0.00 | 0.00 | 0.00 | 66 | 1015.4 |
| 20260905153504 | 89 | 245 | 0.9 | 3.5 | 0.00 | 0.00 | 0.00 | 67 | 1015.3 |
| 20260905153015 | 89 | 299 | 0.9 | 3.5 | 0.00 | 0.00 | 0.00 | 67 | 1015.3 |
| 20260905152504 | 89 | 230 | 1.7 | 3.5 | 0.00 | 0.00 | 0.00 | 68 | 1015.3 |
| 20260905152007 | 89 | 282 | 0.9 | 2.6 | 0.00 | 0.00 | 0.00 | 67 | 1015.3 |
| 20260905151515 | 89 | 276 | 0.9 | 2.6 | 0.00 | 0.00 | 0.00 | 65 | 1015.2 |
| 20260905151009 | 89 | 290 | 0.9 | 3.5 | 0.00 | 0.00 | 0.00 | 67 | 1015.2 |
| 20260905150508 | 89 | 274 | 1.7 | 3.5 | 0.00 | 0.00 | 0.00 | 66 | 1015.0 |